Location: Chippewa Lake
(41.0698°N, 81.9010°W)
Time: 21:59:35
(UTC+00:00)

Gblst 52 Del rocket - Pass Details

Date: 09 May 2021
Orbit: 806 x 1365 km, 51.5° (Epoch: 16 June)

Event Time Altitude Azimuth Distance (km) Brightness Sun altitude
Rises 06:12:23 0° 305° (NW) 3,796 7.8 -30.4°
Reaches altitude 10° 06:15:12 10° 307° (NW) 2,756 7.1 -30.3°
Maximum altitude 06:21:39 75° 33° (NNE) 932 4.4 -30.0°
Enters shadow 06:22:02 72° 66° (ENE) 940 4.4 -30.0°
